Miscellaneous Local Product
Issued by NWS Hastings, NE

Home | Current Version | Previous Version | Text Only | Print | Product List | Glossary On
Versions: 1 2 3 4 5 6 7 8 9 10 11 12 13 14 15 16 17 18 19 20 21 22 23 24 25 26 27 28 29 30 31 32 33 34 35 36 37 38 39 40 41 42 43 44 45 46 47 48 49 50
000
AXUS43 KGID 032202
MISGRI

GID CWA HOURLY WEATHER ROUNDUP
NATIONAL WEATHER SERVICE HASTINGS NE
500 PM CDT THU SEP 03 2015

NOTE: "FAIR" INDICATES FEW OR NO CLOUDS BELOW 12,000 FEET WITH NO
SIGNIFICANT WEATHER AND/OR OBSTRUCTIONS TO VISIBILITY.

...SOUTH CENTRAL NEBRASKA...

CITY           SKY/WX    TMP DP  RH WIND       PRES   REMARKS
GRAND ISLAND   MOSUNNY   94  67  41 SE14      29.78F HX  97
HASTINGS       MOSUNNY   96  62  32 S14       29.77F HX  97
KEARNEY        MOSUNNY   97  63  32 SE13      29.77F HX  98
ORD            PTSUNNY   93  63  36 S16G25    29.75F HX  94
YORK           MOSUNNY   91  68  46 S13       29.79S HX  95
AURORA         MOSUNNY   92  65  40 S15       29.78F HX  94
LEXINGTON      MOSUNNY   94  60  31 SE10      29.77F HX  93
HOLDREGE       MOSUNNY   96  56  26 S12G18    29.77F HX  95
HEBRON         MOSUNNY   94  59  30 S17       29.79F HX  93

...NEBRASKA PANHANDLE...

CITY           SKY/WX    TMP DP  RH WIND       PRES   REMARKS
CHADRON        CLOUDY    97  44  16 SW10      29.75F HX  93
ALLIANCE       CLOUDY    87  48  25 SW14      29.84S
SCOTTSBLUFF    PTSUNNY   84  49  29 S7        29.86F
SIDNEY         CLOUDY    85  47  26 NW16      29.89F

...WESTERN AND NORTH CENTRAL NEBRASKA...

CITY           SKY/WX    TMP DP  RH WIND       PRES   REMARKS
VALENTINE      CLOUDY    96  56  26 E16       29.74F HX  94
AINSWORTH      CLOUDY    92  61  35 SE12      29.76S HX  92
ONEILL         PTSUNNY   89  70  54 SE14      29.77F HX  94
BROKEN BOW     MOSUNNY   93  64  38 S16G23    29.78F HX  94
IMPERIAL       CLOUDY    94  52  24 SW6       29.78F HX  91
NORTH PLATTE   MOSUNNY   91  62  37 SE7       29.76F HX  91
MCCOOK         PTSUNNY   98  55  23 SE14G22   29.73F HX  96

...EASTERN NEBRASKA...

CITY           SKY/WX    TMP DP  RH WIND       PRES   REMARKS
NORFOLK        SUNNY     90  71  53 SE15G22   29.77F HX  96
SO SIOUX CITY  SUNNY     88  67  49 SE12      29.78F HX  91
TEKAMAH        SUNNY     90  74  59 S10       29.78F HX  99
COLUMBUS       MOSUNNY   91  70  49 SE10      29.77F HX  97
ALBION         MOSUNNY   87  68  52 S14       29.79S HX  91
OMAHA EPPLEY   MOSUNNY   93  70  46 S20       29.80F HX  99
OFFUTT AFB     SUNNY     91  72  53 SE18      29.80S HX  99
MILLARD        SUNNY     92  72  52 SE14      29.79F HX 100
LINCOLN        SUNNY     95  68  41 S17       29.79F HX  99
NEBRASKA CITY  SUNNY     92  62  36 S13G21    29.83S HX  92
BEATRICE       SUNNY     93  66  39 S18       29.81S HX  96
FALLS CITY     SUNNY     93  68  43 S13G25    29.83F HX  97

...NORTHERN KANSAS...

CITY           SKY/WX    TMP DP  RH WIND       PRES   REMARKS
GOODLAND       PTSUNNY   94  46  19 S15       29.81F HX  90
HILL CITY      PTSUNNY   99  55  23 S16G31    29.75F HX  97
NORTON         CLEAR     95  50  21 S15G21    29.74F HX  92
PHILLIPSBURG   SUNNY    100  54  20 S18G29    29.74F HX  98
SMITH CENTER   SUNNY     97  57  26 S20G30    29.77F HX  95
HAYS           PTSUNNY   99  55  23 S23G35    29.77F HX  97
RUSSELL        MOSUNNY   97  58  27 S24G38    29.77F HX  96
CONCORDIA      SUNNY     93  62  35 S17G29    29.80S HX  93
SALINA         MOSUNNY   96  62  32 S21G26    29.80F HX  97
TOPEKA         SUNNY     92  67  43 SE18G25   29.85F HX  95



USA.gov is the U.S. government's official web portal to all federal, state and local government web resources and services.